Temperature
11 11 11 10 9 9 8 8 8 8 7 7 6 5 5 4 3 3 2 2 1 1 0 -0 -1 -2 -2 -3 -4 -5 -6 -6 -6 -5 -6 -6 -6 -7 -7 -7 -7 -7 -7
11 10 10 9 8 8 8 8 8 7 6 6 5 4 4 3 2 2 2 1 1 0 -1 -1 -2 -3 -3 -4 -5 -6 -6 -7 -7 -7 -7 -7 -7 -7 -7 -7 -7 -7 -7
10 10 9 8 8 8 8 7 7 6 6 5 4 3 3 2 2 1 1 1 0 -1 -1 -2 -3 -4 -4 -5 -6 -7 -7 -7 -8 -8 -7 -7 -7 -7 -7 -7 -7 -7 -8
9 9 8 8 7 7 7 7 6 5 5 4 3 2 2 2 1 1 0 -0 -1 -1 -2 -3 -3 -5 -5 -6 -7 -7 -8 -8 -8 -8 -8 -7 -7 -7 -7 -7 -8 -8 -8
8 8 7 7 7 7 6 6 5 4 4 3 2 2 1 1 0 -0 -1 -1 -2 -2 -3 -4 -5 -5 -6 -7 -8 -8 -8 -8 -8 -8 -8 -8 -7 -8 -8 -8 -8 -8 -8
8 7 7 7 6 6 5 5 4 3 3 2 1 1 1 0 -0 -1 -1 -2 -3 -3 -4 -5 -6 -6 -7 -8 -8 -9 -9 -9 -8 -8 -8 -8 -8 -8 -8 -9 -9 -9 -9
7 7 6 6 6 5 4 3 3 2 2 1 1 0 0 -0 -1 -1 -2 -2 -3 -4 -5 -6 -7 -7 -8 -9 -9 -9 -9 -8 -8 -8 -9 -9 -9 -9 -9 -9 -9 -9 -9
6 6 6 5 5 4 3 2 2 1 1 0 0 -0 -1 -1 -1 -2 -3 -3 -4 -5 -5 -7 -7 -8 -9 -9 -9 -9 -9 -9 -9 -9 -9 -9 -9 -9 -9 -9 -10 -10 -10
6 5 5 4 4 3 2 1 1 0 0 -0 -0 -1 -1 -2 -2 -3 -3 -4 -5 -6 -7 -7 -8 -9 -9 -9 -9 -9 -9 -9 -9 -9 -9 -9 -9 -9 -9 -10 -10 -10 -10
5 4 4 3 2 2 1 1 0 -0 -0 -1 -1 -1 -2 -2 -3 -3 -4 -6 -7 -7 -8 -8 -8 -9 -9 -9 -9 -9 -9 -9 -9 -10 -9 -9 -9 -9 -9 -10 -10 -11 -11
4 3 2 2 1 1 0 -0 -0 -1 -1 -1 -2 -2 -3 -3 -4 -4 -5 -7 -8 -8 -9 -9 -9 -9 -9 -9 -9 -10 -10 -10 -10 -10 -9 -9 -9 -9 -9 -9 -9 -10 -11
3 2 2 1 1 0 -0 -1 -1 -1 -2 -2 -2 -3 -3 -4 -5 -5 -6 -7 -9 -9 -9 -9 -9 -9 -9 -9 -9 -9 -10 -10 -10 -9 -9 -9 -9 -8 -8 -8 -8 -8 -8
2 1 1 0 -0 -0 -1 -1 -2 -2 -2 -3 -3 -4 -4 -5 -5 -6 -7 -8 -9 -9 -10 -10 -9 -9 -9 -9 -9 -9 -9 -9 -10 -10 -10 -9 -8 -8 -8 -8 -7 -7 -7
1 1 0 -0 -1 -1 -1 -2 -2 -3 -3 -4 -5 -5 -6 -6 -7 -8 -9 -9 -9 -10 -10 -9 -9 -9 -9 -9 -9 -9 -9 -10 -10 -10 -9 -8 -8 -8 -8 -8 -8 -8 -8
1 0 -0 -1 -1 -2 -2 -2 -3 -3 -4 -5 -6 -6 -7 -8 -8 -9 -10 -10 -10 -10 -10 -10 -10 -10 -9 -9 -9 -9 -9 -9 -9 -9 -9 -9 -8 -8 -8 -8 -8 -9 -9
0 -1 -1 -1 -2 -2 -3 -3 -3 -4 -5 -6 -6 -7 -7 -8 -9 -9 -10 -10 -10 -10 -10 -10 -10 -10 -10 -10 -9 -9 -9 -9 -9 -9 -8 -8 -8 -8 -8 -8 -8 -9 -9
-1 -1 -2 -2 -3 -3 -3 -4 -4 -4 -5 -6 -6 -7 -8 -8 -8 -9 -9 -9 -9 -9 -10 -10 -10 -10 -10 -10 -9 -9 -9 -8 -8 -8 -8 -8 -8 -8 -8 -8 -8 -8 -8
-2 -2 -2 -3 -3 -4 -4 -4 -5 -5 -6 -6 -7 -7 -8 -8 -8 -9 -9 -9 -9 -9 -10 -10 -10 -10 -10 -9 -9 -9 -9 -8 -8 -8 -8 -8 -8 -8 -8 -8 -8 -8 -9
-2 -3 -3 -3 -4 -4 -5 -5 -6 -6 -7 -7 -8 -8 -8 -8 -8 -9 -9 -10 -10 -10 -10 -10 -10 -9 -9 -9 -9 -9 -8 -8 -8 -8 -8 -8 -8 -8 -8 -8 -8 -8 -8
-3 -3 -4 -4 -4 -5 -5 -6 -7 -7 -8 -8 -9 -9 -9 -9 -9 -9 -10 -10 -10 -10 -10 -9 -9 -9 -9 -9 -8 -8 -8 -8 -8 -8 -8 -8 -8 -8 -8 -8 -8 -8 -8
-3 -4 -4 -5 -5 -6 -6 -7 -8 -8 -9 -9 -9 -10 -10 -10 -10 -10 -10 -10 -10 -10 -10 -9 -9 -9 -8 -8 -8 -8 -8 -8 -8 -8 -8 -8 -8 -8 -8 -8 -8 -8 -8
-4 -4 -5 -5 -6 -6 -7 -8 -8 -9 -9 -9 -10 -10 -10 -10 -10 -10 -10 -10 -10 -10 -9 -9 -9 -8 -8 -8 -8 -8 -7 -7 -7 -7 -8 -8 -8 -8 -8 -8 -8 -8 -8
-5 -5 -5 -6 -7 -7 -8 -8 -9 -9 -10 -10 -10 -10 -10 -11 -10 -10 -10 -10 -9 -9 -9 -9 -8 -8 -8 -7 -7 -7 -7 -7 -7 -7 -8 -7 -7 -7 -8 -8 -8 -8 -7
-5 -6 -6 -7 -7 -8 -8 -9 -9 -10 -10 -10 -11 -11 -11 -11 -11 -10 -10 -10 -9 -9 -8 -8 -8 -7 -7 -7 -7 -7 -7 -7 -7 -7 -7 -8 -7 -7 -8 -7 -7 -7 -7
-6 -6 -7 -7 -8 -8 -9 -9 -10 -10 -10 -11 -11 -11 -11 -11 -10 -10 -10 -9 -9 -8 -8 -8 -7 -7 -7 -7 -7 -7 -7 -7 -7 -7 -7 -7 -7 -7 -7 -7 -7 -7 -7
-6 -7 -7 -8 -8 -9 -9 -10 -10 -10 -11 -11 -11 -11 -11 -11 -10 -10 -9 -9 -9 -8 -8 -7 -7 -7 -7 -7 -7 -7 -7 -7 -7 -7 -7 -7 -7 -7 -7 -7 -7 -7 -7
Wind_Speed
20 20 20 18 17 16 15 15 14 13 12 10 9 7 6 4 2 1 2 3 5 5 6 7 8 9 8 9 9 10 12 13 18 18 16 17 20 20 19 20 21 22 22
20 20 20 19 17 16 16 15 14 13 11 9 8 6 4 2 1 2 3 4 6 7 7 8 9 8 11 10 10 12 12 14 16 21 19 17 21 20 20 20 18 19 20
20 20 20 18 17 17 16 15 13 12 10 9 7 5 3 2 1 3 4 6 7 8 8 9 10 11 12 11 13 13 13 14 15 18 20 18 17 17 20 19 20 18 18
20 20 19 18 17 16 15 14 12 11 9 8 6 4 2 1 2 4 6 8 8 9 9 9 11 12 13 14 13 14 14 16 17 17 18 18 18 19 18 18 18 17 17
20 19 18 17 16 15 14 13 11 10 8 6 5 3 1 1 3 6 7 9 10 10 10 10 11 13 16 15 14 15 16 16 16 16 17 18 18 18 18 17 18 18 19
19 19 18 17 16 14 13 12 10 9 7 5 3 1 1 2 5 8 9 10 10 10 11 12 12 13 15 19 21 21 21 19 18 18 17 19 22 20 18 17 18 19 20
19 18 17 16 15 13 12 11 9 7 5 4 2 1 3 4 6 9 11 11 11 11 12 12 11 12 17 15 18 22 22 24 23 20 21 21 21 20 20 21 20 21 21
18 17 16 15 14 12 11 9 7 5 4 2 0 2 4 4 7 10 12 11 10 11 12 13 14 15 15 17 19 19 19 19 20 18 18 20 20 20 20 20 21 20 20
17 16 15 14 13 11 10 8 6 4 2 1 1 3 5 5 7 10 12 10 10 12 13 14 15 16 19 22 20 19 20 18 18 21 23 25 28 28 23 16 16 15 17
16 15 14 12 12 10 9 7 4 3 1 1 2 3 5 6 8 11 13 9 11 11 12 13 16 17 21 23 19 18 20 18 18 19 20 20 19 19 20 15 13 14 15
15 14 12 11 10 9 7 5 4 2 0 2 4 4 5 6 8 11 13 10 11 12 12 12 13 19 23 25 23 18 19 20 18 17 16 15 14 13 13 12 12 12 14
14 13 12 10 8 7 6 4 2 1 2 4 5 6 5 6 7 11 15 15 15 14 13 13 14 23 25 25 19 18 22 20 13 12 12 13 13 13 13 15 16 16 16
14 12 11 9 7 5 4 3 1 1 3 4 5 6 7 7 8 13 15 17 18 14 13 18 22 24 22 17 17 20 17 11 10 11 12 13 13 14 14 14 16 15 17
14 11 9 8 6 5 3 2 1 2 3 5 6 7 8 9 9 9 11 13 15 14 14 17 21 20 16 16 15 12 10 10 11 12 13 13 13 13 13 13 13 14 13
12 10 8 6 5 3 2 1 2 2 4 6 7 7 9 10 12 18 15 13 13 14 16 13 11 11 11 10 11 11 10 10 11 11 12 13 13 13 13 12 12 13 13
10 8 5 4 3 2 1 1 1 3 6 7 8 10 10 13 18 19 19 19 20 20 15 10 10 10 11 11 12 12 12 11 11 12 12 12 12 13 14 13 12 12 13
9 7 5 4 3 2 2 3 4 4 5 6 8 12 13 16 18 18 18 19 19 16 10 9 9 10 11 11 11 12 13 13 12 12 12 12 12 13 13 13 13 12 13
8 7 5 3 2 2 2 3 4 6 8 8 9 12 14 16 17 17 18 16 11 9 8 9 10 11 11 11 12 12 13 13 12 12 12 12 12 12 13 13 13 13 14
6 4 3 3 2 2 3 4 5 6 7 8 9 10 14 16 16 15 14 9 9 10 10 10 10 11 11 12 12 12 13 13 13 12 12 13 12 12 12 12 13 17 15
5 5 3 2 2 2 3 4 5 6 7 8 9 9 11 12 11 11 10 9 9 10 10 11 11 12 12 12 12 12 12 13 13 12 12 12 12 12 13 14 13 13 12
4 4 3 2 2 3 4 5 5 6 7 8 8 10 15 11 10 11 10 10 10 10 11 12 12 12 12 11 11 13 14 13 13 12 12 12 12 12 12 12 12 12 12
3 3 2 2 3 3 4 5 5 6 7 9 9 10 15 10 9 10 10 10 11 10 11 11 12 12 11 12 12 13 13 14 13 13 12 12 12 12 12 12 11 11 11
3 2 2 2 3 5 5 5 5 6 7 8 9 9 10 9 10 10 11 11 11 11 11 11 12 12 12 11 12 12 13 14 13 14 14 13 13 12 11 11 12 11 11
2 2 2 3 4 4 5 6 6 7 8 8 9 9 9 10 11 12 12 11 11 12 11 11 12 16 19 16 13 13 13 14 14 13 16 13 12 10 9 9 9 10 9
2 2 3 4 4 5 5 6 6 7 8 8 8 9 10 10 11 11 11 11 13 13 15 14 12 13 17 20 18 16 19 23 20 12 10 9 9 9 9 8 8 8 8
2 3 3 4 4 5 5 6 7 8 8 8 8 9 10 10 11 11 11 11 12 13 14 13 15 17 20 17 18 20 23 21 18 15 9 7 7 7 8 7 8 7 8
Wind_Direction
142 139 137 137 137 134 132 132 131 132 135 135 135 136 139 144 161 218 264 276 287 294 293 294 297 299 296 293 291 287 285 286 289 295 299 301 300 299 298 297 295 294 293
138 136 134 134 134 132 131 130 131 131 132 132 134 136 138 148 198 261 280 286 293 297 299 298 297 300 296 295 293 290 289 289 290 296 299 301 301 301 299 298 299 296 294
135 133 132 133 133 131 130 129 129 129 129 130 134 136 141 163 243 279 289 294 294 295 297 296 298 300 299 299 297 294 292 291 289 292 297 300 300 301 303 301 300 298 297
134 132 131 132 131 129 128 128 128 129 130 131 131 131 141 212 270 289 294 295 295 294 293 291 293 296 298 300 298 295 295 295 295 294 295 299 301 304 305 305 304 303 300
131 128 127 126 125 125 126 126 126 125 125 128 131 134 164 277 298 307 303 299 297 296 294 291 291 294 294 295 295 297 299 297 295 295 297 301 302 306 306 306 304 304 300
127 125 125 126 126 125 126 126 125 124 127 131 131 141 293 310 315 307 310 304 298 296 297 298 297 294 295 297 297 297 295 292 294 295 297 298 300 302 305 303 302 302 302
124 125 127 127 126 126 127 127 127 128 132 134 136 289 309 318 313 313 312 305 298 297 298 299 299 299 302 300 299 298 294 292 290 292 294 294 297 300 301 300 299 298 297
124 126 128 128 127 128 129 127 126 128 133 136 83 317 308 312 315 314 314 304 298 296 297 299 300 302 303 305 304 300 298 296 294 292 290 291 291 293 294 295 296 295 292
126 128 130 130 130 131 129 127 128 131 129 103 310 306 306 310 315 315 318 310 300 300 300 299 299 299 303 306 306 304 303 300 299 296 292 289 289 292 293 294 293 293 295
127 127 128 129 129 128 127 126 122 121 104 315 298 299 301 308 314 317 320 310 305 306 304 301 300 302 306 309 308 307 304 306 307 303 298 295 293 292 292 285 286 288 292
122 121 120 120 120 121 119 117 119 111 330 310 307 304 299 304 311 316 318 314 310 308 306 305 304 308 309 310 310 305 302 305 303 301 300 299 299 297 296 295 290 284 284
119 116 115 115 114 117 118 117 111 57 321 319 316 315 311 311 307 315 318 314 312 308 305 305 306 309 311 312 310 305 306 307 301 300 300 299 301 302 301 299 294 287 276
118 116 115 114 111 115 115 112 96 352 328 323 319 315 317 318 317 318 318 316 315 310 304 305 308 310 313 311 307 308 309 304 301 300 299 299 300 299 299 298 297 293 287
120 120 120 118 115 111 102 84 16 342 329 321 317 316 316 316 320 324 322 319 317 313 311 309 309 309 309 306 307 308 305 300 301 298 298 299 300 300 299 300 302 305 302
120 119 117 114 115 108 90 31 342 332 322 320 319 318 317 316 319 321 319 316 317 314 316 309 309 312 314 314 313 310 309 307 306 302 300 300 301 301 301 303 301 301 297
121 119 115 114 107 86 34 348 256 293 317 318 319 319 315 312 317 319 319 318 319 319 317 307 309 312 312 313 312 311 310 309 306 304 301 299 299 301 302 303 302 300 299
119 118 114 109 94 57 8 347 335 317 301 312 323 327 323 322 323 322 323 323 320 320 312 307 308 308 307 306 305 304 304 305 304 300 298 298 298 298 299 301 302 302 302
109 106 105 98 78 35 360 343 334 329 327 327 329 329 330 330 326 326 328 327 320 321 313 308 306 305 304 303 302 301 301 303 302 300 298 297 296 297 298 299 300 301 303
107 106 102 93 65 20 350 335 329 324 320 320 323 328 334 330 326 327 332 325 317 315 312 308 305 302 300 299 298 298 298 298 298 298 296 296 296 296 295 296 298 300 303
102 100 93 76 41 6 347 336 330 325 322 322 324 328 331 328 327 327 328 320 314 310 309 306 303 300 299 297 297 297 297 296 298 296 295 295 295 294 294 296 297 301 303
104 98 79 57 23 356 339 333 328 322 321 321 320 323 328 324 318 317 317 315 312 308 306 304 302 300 298 296 296 295 295 295 294 294 294 294 295 295 294 294 296 298 302
95 84 57 29 1 345 336 329 322 319 319 319 320 322 325 322 315 313 312 310 308 304 302 300 297 296 295 295 295 295 294 293 294 294 294 294 295 294 294 296 299 304 308
85 70 38 9 347 334 328 324 321 319 318 319 319 318 319 318 316 313 310 309 308 306 303 300 297 296 296 295 293 289 288 288 289 290 291 292 293 294 296 300 305 312 316
70 43 10 349 336 329 325 323 320 318 318 317 316 315 315 314 312 310 309 307 307 305 303 301 296 296 298 300 298 294 288 287 288 287 286 286 292 298 305 311 314 319 320
48 14 348 335 327 323 320 318 317 317 314 313 312 311 312 312 310 309 309 308 308 305 306 305 300 301 303 305 304 300 299 303 307 310 308 311 315 317 320 321 324 325 328
17 348 333 325 319 317 315 313 312 312 309 309 308 307 308 308 307 307 308 308 310 310 308 307 304 307 308 308 306 308 314 322 330 335 333 324 326 331 334 332 334 336 339
Height
1422 1429 1436 1443 1451 1457 1464 1469 1474 1478 1480 1482 1483 1484 1484 1483 1482 1481 1480 1478 1475 1473 1469 1466 1463 1459 1456 1452 1449 1445 1441 1435 1426 1418 1417 1412 1408 1403 1398 1393 1387 1381 1375
1421 1428 1436 1443 1450 1457 1463 1468 1472 1476 1478 1480 1481 1481 1481 1480 1479 1478 1476 1474 1471 1468 1465 1461 1458 1454 1450 1447 1443 1438 1434 1429 1423 1412 1407 1404 1400 1395 1390 1385 1379 1374 1367
1421 1429 1436 1443 1451 1457 1462 1467 1471 1474 1476 1477 1478 1478 1478 1477 1476 1474 1472 1469 1466 1463 1460 1456 1452 1448 1445 1441 1437 1433 1428 1423 1418 1410 1401 1398 1393 1388 1383 1377 1372 1366 1359
1423 1430 1437 1445 1451 1457 1462 1466 1469 1472 1474 1475 1475 1475 1475 1473 1472 1470 1467 1464 1461 1458 1454 1450 1446 1443 1439 1435 1431 1427 1423 1418 1412 1406 1398 1391 1386 1382 1377 1370 1363 1357 1351
1424 1431 1439 1446 1452 1457 1462 1465 1468 1470 1472 1473 1473 1472 1471 1470 1468 1465 1462 1459 1456 1452 1449 1445 1441 1437 1433 1429 1425 1421 1417 1412 1406 1401 1394 1387 1381 1376 1371 1364 1357 1349 1343
1426 1433 1441 1447 1453 1458 1462 1464 1467 1468 1470 1470 1470 1469 1468 1466 1464 1461 1458 1454 1451 1447 1443 1439 1435 1431 1427 1423 1419 1415 1411 1407 1401 1396 1389 1383 1376 1371 1365 1359 1352 1344 1334
1429 1436 1443 1449 1454 1458 1461 1464 1465 1467 1468 1468 1467 1466 1464 1462 1459 1456 1452 1449 1445 1441 1437 1433 1429 1425 1421 1416 1412 1408 1404 1400 1396 1391 1384 1377 1371 1366 1360 1352 1346 1339 1330
1433 1439 1445 1450 1454 1458 1460 1463 1464 1465 1465 1465 1464 1462 1460 1457 1454 1451 1447 1443 1439 1435 1432 1427 1423 1419 1415 1411 1406 1401 1397 1393 1388 1383 1377 1370 1365 1359 1354 1348 1340 1332 1323
1436 1441 1446 1451 1455 1458 1460 1462 1463 1463 1463 1462 1461 1458 1456 1453 1449 1446 1441 1437 1433 1430 1426 1422 1418 1414 1410 1405 1401 1395 1389 1384 1380 1375 1369 1363 1357 1352 1347 1341 1333 1327 1317
1438 1443 1448 1452 1455 1458 1459 1460 1461 1461 1460 1459 1457 1454 1451 1448 1445 1441 1436 1432 1428 1425 1421 1417 1413 1409 1404 1400 1395 1389 1382 1377 1371 1365 1360 1355 1350 1344 1340 1335 1328 1321 1313
1441 1445 1449 1453 1455 1457 1458 1459 1459 1458 1457 1456 1453 1450 1447 1443 1440 1436 1432 1428 1424 1420 1416 1412 1407 1403 1398 1393 1389 1383 1376 1371 1365 1359 1353 1348 1343 1338 1333 1328 1322 1316 1308
1443 1447 1450 1453 1455 1457 1457 1457 1457 1456 1454 1452 1449 1447 1443 1439 1435 1431 1427 1424 1420 1415 1410 1406 1401 1396 1391 1386 1380 1375 1370 1365 1359 1354 1348 1342 1336 1331 1325 1320 1314 1308 1301
1445 1448 1451 1453 1455 1456 1456 1455 1454 1453 1450 1448 1445 1442 1438 1435 1431 1426 1422 1418 1414 1410 1405 1400 1395 1389 1384 1378 1374 1369 1364 1359 1354 1348 1342 1337 1331 1325 1319 1312 1306 1300 1293
1447 1449 1452 1453 1454 1454 1454 1453 1451 1449 1447 1444 1440 1437 1433 1430 1426 1422 1417 1413 1408 1404 1399 1393 1388 1383 1378 1373 1368 1364 1359 1355 1350 1344 1338 1332 1325 1319 1313 1307 1299 1292 1284
1448 1450 1452 1453 1453 1453 1452 1451 1449 1446 1444 1440 1437 1433 1429 1425 1421 1417 1413 1408 1403 1399 1393 1388 1383 1378 1373 1369 1364 1360 1355 1350 1345 1339 1333 1327 1321 1315 1308 1302 1295 1288 1281
1449 1450 1451 1452 1452 1451 1450 1448 1445 1444 1440 1437 1433 1429 1425 1421 1416 1412 1407 1403 1398 1393 1388 1383 1379 1375 1370 1365 1360 1355 1351 1346 1340 1335 1329 1323 1317 1310 1304 1298 1292 1285 1278
1449 1450 1451 1451 1450 1449 1447 1445 1443 1440 1437 1434 1429 1425 1421 1416 1411 1406 1402 1397 1393 1389 1384 1380 1376 1371 1366 1362 1357 1351 1346 1341 1336 1330 1325 1319 1313 1306 1300 1294 1288 1281 1275
1449 1450 1450 1449 1448 1446 1444 1442 1439 1436 1433 1429 1426 1421 1416 1412 1407 1402 1397 1392 1388 1385 1381 1377 1372 1368 1363 1358 1353 1348 1343 1337 1332 1327 1321 1315 1309 1303 1297 1290 1285 1279 1272
1449 1449 1448 1447 1446 1444 1442 1439 1436 1433 1429 1425 1421 1417 1412 1408 1403 1399 1394 1389 1385 1381 1377 1373 1369 1364 1360 1355 1350 1344 1339 1334 1328 1323 1317 1311 1306 1300 1293 1288 1282 1276 1270
1448 1448 1447 1445 1444 1441 1439 1436 1433 1430 1426 1422 1418 1413 1408 1403 1399 1395 1391 1387 1383 1378 1374 1370 1366 1361 1356 1351 1346 1341 1335 1330 1324 1319 1313 1308 1302 1297 1291 1285 1279 1274 1268
1447 1446 1445 1443 1441 1439 1436 1433 1430 1427 1423 1419 1415 1411 1406 1402 1397 1393 1388 1384 1380 1376 1372 1367 1362 1358 1353 1348 1342 1337 1331 1326 1321 1315 1310 1304 1299 1293 1288 1283 1277 1272 1267
1446 1445 1443 1441 1439 1436 1434 1431 1428 1424 1420 1417 1412 1409 1404 1400 1395 1391 1387 1382 1378 1374 1369 1364 1360 1355 1350 1345 1339 1333 1327 1322 1317 1311 1306 1301 1296 1290 1285 1280 1275 1271 1266
1445 1443 1441 1439 1437 1434 1431 1428 1425 1421 1418 1414 1410 1406 1402 1397 1393 1389 1385 1380 1376 1372 1367 1362 1357 1352 1347 1342 1337 1331 1325 1319 1314 1308 1302 1297 1292 1288 1283 1279 1275 1270 1265
1443 1441 1439 1436 1434 1431 1428 1425 1422 1419 1415 1411 1407 1403 1399 1395 1391 1387 1383 1378 1374 1369 1365 1360 1355 1350 1345 1340 1334 1329 1323 1317 1311 1305 1300 1295 1290 1286 1282 1278 1274 1270 1265
1441 1439 1436 1434 1431 1428 1426 1422 1419 1416 1412 1409 1405 1401 1397 1393 1389 1385 1381 1376 1372 1367 1363 1358 1353 1348 1343 1338 1332 1327 1321 1315 1310 1305 1299 1295 1290 1286 1282 1278 1274 1270 1266
1438 1436 1434 1431 1429 1426 1422 1419 1416 1413 1409 1406 1402 1399 1395 1391 1387 1383 1379 1374 1370 1365 1361 1356 1351 1347 1341 1336 1330 1325 1319 1314 1308 1303 1298 1294 1290 1286 1282 1278 1275 1271 1268